Date String (YYYY-MM-DD hh:mm:ss) UTC,Instrument flags,Ambient pressure (hPa),Sample flow (lpm),Bypass flow (lpm),Sample temperature (°C),Ambient temperature (°C),ASC tube jacket temperature (°C),LED temperature (°C),Box temperature (°C),Sample RH (%),Span deviation,Mass concentration (μg/m³),Mass concentration (μg/m³),Mass concentration (μg/m³)
DateTimeUTC,F1_M11,P_M11,Q1_M11,Q2_M11,T1_M11,T2_M11,T3_M11,T4_M11,T5_M11,U1_M11,ZSPAN_M11,X0_M11,X2_M11,X1_M11
2021-11-13 11:00:00,,0827.7,4.98,0.00,25.4,24.8,00.0,34.3,27.3,16.0,0000.0,0000.42,0000.27,0000.22
2021-11-13 11:01:00,,0827.7,5.00,0.00,25.4,24.8,00.0,34.3,27.3,15.9,0000.0,0000.41,0000.27,0000.21
2021-11-13 11:02:00,,0827.7,4.99,0.00,25.4,24.8,00.0,34.4,27.3,15.7,0000.0,0000.42,0000.27,0000.21
2021-11-13 11:03:00,,0827.7,5.00,0.00,25.4,24.8,00.0,34.4,27.3,15.9,0000.0,0000.41,0000.27,0000.21
2021-11-13 11:04:00,,0827.8,5.00,0.00,25.4,24.8,00.0,34.4,27.2,16.0,0000.0,0000.42,0000.28,0000.21
2021-11-13 11:05:00,,0827.7,5.00,0.00,25.4,24.8,00.0,34.4,27.2,15.7,0000.0,0000.44,0000.29,0000.21
2021-11-13 11:06:00,,0827.7,5.00,0.00,25.4,24.8,00.0,34.4,27.3,15.7,0000.0,0000.52,0000.32,0000.21
2021-11-13 11:07:00,,0827.7,5.01,0.00,25.4,24.8,00.0,34.4,27.2,15.7,0000.0,0000.53,0000.32,0000.21
2021-11-13 11:08:00,,0827.7,5.01,0.00,25.4,24.8,00.0,34.4,27.3,15.8,0000.0,0000.57,0000.33,0000.21
2021-11-13 11:09:00,,0827.7,5.00,0.00,25.4,24.8,00.0,34.4,27.2,15.7,0000.0,0000.65,0000.35,0000.21
2021-11-13 11:10:00,,0827.7,4.98,0.00,25.4,24.8,00.0,34.4,27.3,15.8,0000.0,0000.70,0000.37,0000.21
2021-11-13 11:11:00,,0827.7,5.01,0.00,25.4,24.8,00.0,34.4,27.2,15.8,0000.0,0000.69,0000.37,0000.21
2021-11-13 11:12:00,,0827.8,5.00,0.00,25.4,24.8,00.0,34.4,27.2,15.9,0000.0,0000.69,0000.37,0000.21
2021-11-13 11:13:00,,0827.7,4.99,0.00,25.4,24.7,00.0,34.4,27.2,15.9,0000.0,0000.70,0000.37,0000.22
2021-11-13 11:14:00,,0827.7,5.01,0.00,25.4,24.7,00.0,34.4,27.2,15.5,0000.0,0000.76,0000.38,0000.22
2021-11-13 11:15:00,,0827.7,5.00,0.00,25.4,24.7,00.0,34.4,27.2,15.5,0000.0,0000.75,0000.39,0000.23
2021-11-13 11:16:00,,0827.7,5.01,0.00,25.4,24.7,00.0,34.4,27.2,15.7,0000.0,0000.84,0000.40,0000.23
2021-11-13 11:17:00,,0827.7,5.00,0.00,25.4,24.7,00.0,34.4,27.2,15.8,0000.0,0000.80,0000.37,0000.23
2021-11-13 11:18:00,,0827.7,5.00,0.00,25.4,24.6,00.0,34.5,27.2,16.0,0000.0,0000.88,0000.38,0000.23
2021-11-13 11:19:00,,0827.7,5.00,0.00,25.4,24.6,00.0,34.4,27.2,16.1,0000.0,0000.86,0000.37,0000.24
2021-11-13 11:20:00,,0827.7,5.00,0.00,25.4,24.6,00.0,34.4,27.1,16.1,0000.0,0000.82,0000.37,0000.24
2021-11-13 11:21:00,,0827.7,5.00,0.00,25.3,24.6,00.0,34.4,27.1,16.1,0000.0,0000.77,0000.35,0000.24
2021-11-13 11:22:00,,0827.7,5.01,0.00,25.3,24.6,00.0,34.4,27.1,16.0,0000.0,0000.75,0000.34,0000.24
2021-11-13 11:23:00,,0827.7,4.99,0.00,25.3,24.6,00.0,34.4,27.1,16.1,0000.0,0000.76,0000.35,0000.24
2021-11-13 11:24:00,,0827.7,5.01,0.00,25.3,24.6,00.0,34.4,27.1,16.1,0000.0,0000.77,0000.35,0000.24
2021-11-13 11:25:00,,0827.7,4.99,0.00,25.4,24.6,00.0,34.4,27.2,16.1,0000.0,0000.75,0000.35,0000.25
2021-11-13 11:26:00,,0827.7,5.01,0.00,25.4,24.6,00.0,34.4,27.2,16.1,0000.0,0000.79,0000.36,0000.25
2021-11-13 11:27:00,,0827.6,4.99,0.00,25.4,24.6,00.0,34.4,27.1,16.0,0000.0,0000.70,0000.35,0000.25
2021-11-13 11:28:00,,0827.5,5.00,0.00,25.4,24.7,00.0,34.4,27.1,16.0,0000.0,0000.77,0000.37,0000.25
2021-11-13 11:29:00,,0827.5,5.00,0.00,25.4,24.7,00.0,34.4,27.2,15.9,0000.0,0000.78,0000.40,0000.26
2021-11-13 11:30:00,,0827.5,5.00,0.00,25.4,24.7,00.0,34.4,27.2,15.9,0000.0,0000.71,0000.39,0000.26
2021-11-13 11:31:00,,0827.5,4.99,0.00,25.4,24.6,00.0,34.4,27.1,16.0,0000.0,0000.69,0000.39,0000.27
2021-11-13 11:32:00,,0827.5,5.01,0.00,25.4,24.6,00.0,34.4,27.1,16.1,0000.0,0000.72,0000.39,0000.27
2021-11-13 11:33:00,,0827.5,5.00,0.00,25.4,24.6,00.0,34.4,27.1,16.1,0000.0,0000.78,0000.42,0000.28
2021-11-13 11:34:00,,0827.4,4.99,0.00,25.4,24.6,00.0,34.4,27.1,16.2,0000.0,0000.80,0000.43,0000.29
2021-11-13 11:35:00,,0827.4,5.00,0.00,25.4,24.6,00.0,34.4,27.2,16.2,0000.0,0000.78,0000.43,0000.29
2021-11-13 11:36:00,,0827.4,4.99,0.00,25.4,24.6,00.0,34.4,27.2,16.3,0000.0,0000.74,0000.42,0000.29
2021-11-13 11:37:00,,0827.2,4.99,0.00,25.4,24.6,00.0,34.4,27.2,16.3,0000.0,0000.76,0000.43,0000.29
2021-11-13 11:38:00,,0827.3,5.00,0.00,25.4,24.6,00.0,34.4,27.2,16.4,0000.0,0000.84,0000.45,0000.31
2021-11-13 11:39:00,,0827.4,5.01,0.00,25.4,24.6,00.0,34.4,27.1,16.4,0000.0,0000.86,0000.44,0000.32
2021-11-13 11:40:00,,0827.3,5.00,0.00,25.4,24.6,00.0,34.4,27.1,16.4,0000.0,0000.96,0000.47,0000.32
2021-11-13 11:41:00,,0827.3,5.00,0.00,25.4,24.5,00.0,34.4,27.1,16.3,0000.0,0001.33,0000.51,0000.33
2021-11-13 11:42:00,,0827.3,5.00,0.00,25.4,24.5,00.0,34.4,27.1,16.3,0000.0,0003.18,0000.54,0000.33
2021-11-13 11:43:00,,0827.3,5.00,0.00,25.3,24.5,00.0,34.4,27.0,16.3,0000.0,0004.03,0000.55,0000.34
2021-11-13 11:44:00,,0827.3,5.01,0.00,25.3,24.5,00.0,34.4,27.2,16.4,0000.0,0004.22,0000.57,0000.34
2021-11-13 11:45:00,,0827.3,5.00,0.00,25.4,24.4,00.0,34.4,27.2,16.4,0000.0,0004.22,0000.58,0000.34
2021-11-13 11:46:00,,0827.3,4.99,0.00,25.4,24.4,00.0,34.4,27.2,16.4,0000.0,0004.27,0000.60,0000.34
2021-11-13 11:47:00,,0827.2,5.00,0.00,25.4,24.4,00.0,34.4,27.2,16.4,0000.0,0004.32,0000.62,0000.34
2021-11-13 11:48:00,,0827.3,5.00,0.00,25.3,24.4,00.0,34.4,27.2,16.4,0000.0,0004.32,0000.62,0000.35
2021-11-13 11:49:00,,0827.2,5.01,0.00,25.3,24.4,00.0,34.4,27.1,16.5,0000.0,0004.27,0000.61,0000.35
2021-11-13 11:50:00,,0827.1,5.01,0.00,25.3,24.4,00.0,34.4,27.0,16.4,0000.0,0004.19,0000.60,0000.34
2021-11-13 11:51:00,,0827.1,5.00,0.00,25.3,24.4,00.0,34.4,27.0,16.3,0000.0,0005.60,0000.57,0000.34
2021-11-13 11:52:00,,0827.0,5.00,0.00,25.3,24.3,00.0,34.4,27.1,16.3,0000.0,0005.71,0000.54,0000.33
2021-11-13 11:53:00,,0827.1,5.01,0.00,25.3,24.3,00.0,34.4,27.1,16.3,0000.0,0004.15,0000.53,0000.33
2021-11-13 11:54:00,,0827.0,5.00,0.00,25.3,24.3,00.0,34.4,27.1,16.3,0000.0,0002.84,0000.51,0000.32
2021-11-13 11:55:00,,0827.0,4.99,0.00,25.3,24.3,00.0,34.3,27.1,16.4,0000.0,0003.10,0000.49,0000.31
2021-11-13 11:56:00,,0827.1,5.01,0.00,25.3,24.3,00.0,34.3,27.1,16.4,0000.0,0003.17,0000.50,0000.32
2021-11-13 11:57:00,,0827.1,5.01,0.00,25.2,24.2,00.0,34.3,27.1,16.5,0000.0,0003.11,0000.47,0000.32
2021-11-13 11:58:00,,0827.1,5.00,0.00,25.2,24.2,00.0,34.3,27.1,16.6,0000.0,0003.08,0000.46,0000.32
2021-11-13 11:59:00,,0827.1,5.00,0.00,25.2,24.2,00.0,34.3,27.0,16.6,0000.0,0003.14,0000.46,0000.32
